Location: Canet
(43.3261°N, 5.3723°E)
Time: 17:49:58
(UTC+00:00)

CZ-4B R/B - Pass Details

Date: 24 January 2021
Orbit: 387 x 458 km, 97.6° (Epoch: 08 March)

Event Time Altitude Azimuth Distance (km) Brightness Sun altitude
Rises 18:20:26 0° 0° (N) 2,453 5.0 -18.2°
Reaches altitude 10° 18:22:42 10° 348° (NNW) 1,565 4.2 -18.6°
Maximum altitude 18:25:31 25° 291° (WNW) 910 3.6 -19.1°
Drops below altitude 10° 18:28:15 10° 233° (SW) 1,519 5.0 -19.6°
Sets 18:30:25 0° 220° (SW) 2,364 5.8 -20.0°
